Location: Ocean City
(38.3360°N, 75.0850°W)
Time: 19:47:03
(UTC-05:00)

deb Explorer IX - Pass Details

Date: 22 November 2019
Orbit: 546 x 1105 km, 38.8° (Epoch: 09 December)

Event Time Altitude Azimuth Distance (km) Brightness Sun altitude
Exits shadow 03:08:50 11° 102° (ESE) 2,180 ? -42.9°
Drops below altitude 10° 03:08:58 10° 102° (ESE) 2,228 ? -42.9°
Sets 03:11:10 0° 102° (ESE) 3,058 ? -42.4°
